This is the latest recevied weather packets stored in our database for station/object 4S6DRJ-13. If no packets are shown the sender has not sent any weather packets the latest 10 day(s).
| Time | Temp. | Humidity | Pressure | Rain* | Wind** | Luminosity | Snow |
|---|---|---|---|---|---|---|---|
| 1787890741 | 29.44° C | 80% | 1011.2 hPa | 0 mm | 1.79 m/s, 209° | 336 W/m² | - |
| 1787890679 | 29.44° C | 80% | 1011.2 hPa | 0 mm | 2.24 m/s, 333° | 356 W/m² | - |
| 1787890619 | 29.44° C | 79% | 1011.1 hPa | 0 mm | 3.13 m/s, 261° | 384 W/m² | - |
| 1787890558 | 29.44° C | 79% | 1011.2 hPa | 0 mm | 3.13 m/s, 45° | 389 W/m² | - |
| 1787890497 | 29.44° C | 79% | 1011 hPa | 0 mm | 1.79 m/s, 256° | 360 W/m² | - |
| 1787890436 | 29.44° C | 79% | 1011.1 hPa | 0 mm | 0.89 m/s, 229° | 367 W/m² | - |
| 1787890375 | 29.44° C | 79% | 1011.2 hPa | 0 mm | 1.79 m/s, 231° | 376 W/m² | - |
| 1787890314 | 29.44° C | 79% | 1011.2 hPa | 0 mm | 2.68 m/s, 97° | 386 W/m² | - |
| 1787890253 | 29.44° C | 80% | 1011.2 hPa | 0 mm | 0.89 m/s, 357° | 409 W/m² | - |
| 1787890192 | 29.44° C | 79% | 1011.3 hPa | 0 mm | 1.79 m/s, 230° | 446 W/m² | - |
| 1787890131 | 30° C | 79% | 1011.2 hPa | 0 mm | 0.89 m/s, 292° | 437 W/m² | - |
| 1787890069 | 30° C | 78% | 1011.1 hPa | 0 mm | 3.58 m/s, 212° | 419 W/m² | - |
| 1787890009 | 30° C | 78% | 1011.1 hPa | 0 mm | 3.58 m/s, 11° | 384 W/m² | - |
| 1787889947 | 30.56° C | 77% | 1011.2 hPa | 0 mm | 3.13 m/s, 215° | 386 W/m² | - |
| 1787889887 | 30.56° C | 77% | 1011 hPa | 0 mm | 4.02 m/s, 248° | 410 W/m² | - |
| 1787889826 | 30° C | 78% | 1011.3 hPa | 0 mm | 0.45 m/s, 281° | 411 W/m² | - |
| 1787889765 | 30° C | 78% | 1011.2 hPa | 0 mm | 1.34 m/s, 244° | 602 W/m² | - |
| 1787889703 | 30° C | 78% | 1011.2 hPa | 0 mm | 2.24 m/s, 242° | 869 W/m² | - |
| 1787889643 | 30° C | 79% | 1011.2 hPa | 0 mm | 0 m/s | 835 W/m² | - |
| 1787889582 | 29.44° C | 79% | 1011.2 hPa | 0 mm | 2.68 m/s, 207° | 1115 W/m² | - |
| 1787889521 | 29.44° C | 80% | 1011.3 hPa | 0 mm | 1.34 m/s, 218° | 1115 W/m² | - |
| 1787889461 | 29.44° C | 79% | 1011.4 hPa | 0 mm | 2.68 m/s, 243° | 1115 W/m² | - |
| 1787889399 | 29.44° C | 80% | 1011.2 hPa | 0 mm | 1.79 m/s, 231° | 1111 W/m² | - |
| 1787889338 | 29.44° C | 80% | 1011.3 hPa | 0 mm | 3.13 m/s, 226° | 563 W/m² | - |
| 1787889284 | 29.44° C | 79% | 1011.2 hPa | 0 mm | 3.13 m/s, 264° | 395 W/m² | - |
* Rain latest hour (hover to see other rain measurements)
** Current wind speed in m/s (hover to see current wind gust speed)